Tracking 27380 objects as of 5-Jun-2023
HD Live streaming from Space Station
objects crossing your sky now

DELTA 1 DEB

Track DELTA 1 DEB now!
10-day predictions


NORAD ID: 7036
Int'l Code: 1973-086AC
Perigee: 1,432.6 km
Apogee: 1,483.7 km
Inclination: 101.5 °
Period: 114.9 minutes
Semi major axis: 7829 km
RCS: 0.0934 m2 (small)
Launch date: November 6, 1973
Source: United States (US)
Launch site: AIR FORCE WESTERN TEST RANGE (AFWTR)

Note: This is SATELLITE DEBRIS
Your satellite tracking list
Your tracking list is empty




NASA's NSSDC Master Catalog

Two Line Element Set (TLE):
1 07036U 73086AC  23155.94276594  .00000888  00000-0  58571-2 0  9994
2 07036 101.4910 142.3503 0032662 225.2772 191.6372 12.53232305258176
Source of the keplerian elements: AFSPC